Location: Newark
(25.4800°N, 85.7200°E)
Time: 20:15:23
(UTC+00:00)

Explorer 11/Cluster Stage 4 - Pass Details

Date: 25 August 2019
Orbit: 467 x 1259 km, 28.8° (Epoch: 13 October)

Event Time Altitude Azimuth Distance (km) Brightness Sun altitude
Rises 05:53:20 0° 274° (W) 4,122 10.2 74.1°
Reaches altitude 10° 05:56:12 10° 277° (W) 3,201 9.8 74.4°
Maximum altitude 06:04:26 70° 360° (N) 1,320 8.8 74.9°
Drops below altitude 10° 06:12:21 10° 83° (E) 3,091 9.8 75.3°
Sets 06:15:05 0° 86° (E) 3,975 10.2 75.3°
